Location: Blue Mountain Vista Observatory
(40.6992°N, 75.9422°W)
Time: 08:04:11
(UTC-04:00)

Amateur Radio Satellites - All Passes

Search period start: 28 March 2017 07:34
Search period end: 29 March 2017 07:34
Location: Blue Mountain Vista Observatory, 40.6992°N, 75.9422°W

Satellite Date Start Highest point End Downlink Frequencies (MHz)
Time Altitude Azimuth
AO-7 28 Mar 07:43:14 07:45:46 12° 317° (NW) 07:48:18 .
STRAND 1 28 Mar 07:46:04 07:51:13 79° 256° (WSW) 07:56:23 437.568
SEEDS 28 Mar 07:46:16 07:48:07 13° 91° (E) 07:49:58 437.485
XW-2F 28 Mar 07:49:21 07:52:49 38° 288° (WNW) 07:56:18 145.980 - 146.000
XW-2A 28 Mar 07:53:38 07:56:31 26° 96° (E) 07:59:22 145.665 - 145.685
HO-68 28 Mar 07:53:56 08:00:18 33° 96° (E) 08:06:38 435.675
LilacSat-2 28 Mar 07:54:04 07:57:25 31° 289° (WNW) 08:00:46 437.200
CUTE 1.7 + AOD 2 28 Mar 07:55:09 07:58:40 25° 95° (E) 08:02:09 437.475
CUBEBUG 2 28 Mar 07:57:46 07:59:21 12° 89° (E) 08:00:53 437.445
NUDT-PHONESAT 28 Mar 08:09:49 08:12:54 26° 290° (WNW) 08:15:59 437.300
XW-2D 28 Mar 08:17:13 08:19:47 18° 292° (WNW) 08:22:21 145.860 - 145.880
KAITUO 1B 28 Mar 08:19:40 08:22:26 20° 291° (WNW) 08:25:12 145.475/437.950
XW-2B 28 Mar 08:23:26 08:25:45 16° 293° (WNW) 08:28:03 145.730 - 145.750
BEESAT 3 28 Mar 08:25:59 08:29:04 21° 248° (WSW) 08:32:07 437.485
XW-2C 28 Mar 08:34:26 08:35:54 12° 295° (WNW) 08:37:24 145.795 - 145.815
NO-84 28 Mar 08:35:00 08:35:59 11° 337° (NNW) 08:36:59 435.350 FM
BEESAT 2 28 Mar 08:45:09 08:48:49 33° 245° (WSW) 08:52:27 435.950
CUTE-I 28 Mar 08:49:54 08:53:47 21° 297° (WNW) 08:57:39 437.470
DOVE 4 28 Mar 08:51:05 08:53:16 13° 300° (WNW) 08:55:26 437.250
UWE-3 28 Mar 08:54:45 08:58:34 31° 96° (E) 09:02:16 435.000/436.395/437.385
AAUSAT CUBESAT 2 28 Mar 08:59:00 09:02:56 41° 98° (E) 09:06:52 437.432
UNISAT 6 28 Mar 09:00:52 09:03:07 13° 63° (ENE) 09:05:21 437.425
PRISM 28 Mar 09:12:44 09:16:17 30° 69° (ENE) 09:19:52 437.425
SEEDS 28 Mar 09:20:01 09:24:06 52° 286° (WNW) 09:28:10 437.485
Oscar 11 28 Mar 09:20:30 09:24:10 27° 96° (E) 09:27:50 .
XW-2A 28 Mar 09:26:56 09:29:05 16° 292° (WNW) 09:31:12 145.665 - 145.685
YUBILEINY 28 Mar 09:28:31 09:36:20 36° 289° (WNW) 09:44:11 435.215
CUTE 1.7 + AOD 2 28 Mar 09:30:54 09:34:25 26° 291° (WNW) 09:37:58 437.475
ZACube-1 28 Mar 09:31:08 09:35:12 45° 99° (E) 09:39:10 437.345
CUBEBUG 2 28 Mar 09:32:04 09:36:23 58° 286° (WNW) 09:40:33 437.445
PCSat 28 Mar 09:35:26 09:40:45 62° 115° (ESE) 09:46:07 145.827
FO-29 28 Mar 09:39:44 09:46:25 33° 65° (ENE) 09:52:42 435.910
HO-68 28 Mar 09:41:22 09:48:08 47° 294° (WNW) 09:54:54 435.675
AO-73 28 Mar 09:58:19 10:02:32 87° 98° (E) 10:06:40 145.935
DELFI C3 28 Mar 10:02:14 10:05:26 23° 95° (E) 10:08:37 145.870
TIGRISAT 28 Mar 10:23:45 10:28:28 87° 73° (ENE) 10:33:09 435.000
UWE-3 28 Mar 10:31:33 10:34:50 22° 293° (WNW) 10:38:03 435.000/436.395/437.385
UNISAT 6 28 Mar 10:34:35 10:39:15 68° 258° (WSW) 10:43:55 437.425
AAUSAT CUBESAT 2 28 Mar 10:35:26 10:38:04 17° 294° (WNW) 10:40:42 437.432
EO-79 28 Mar 10:43:52 10:45:38 12° 63° (ENE) 10:47:23 145.935-145.965
AIST 2D 28 Mar 10:45:46 10:48:08 17° 68° (ENE) 10:50:30 435.315
PRISM 28 Mar 10:48:30 10:51:35 21° 265° (W) 10:54:41 437.425
Oscar 11 28 Mar 10:56:39 11:00:12 26° 291° (WNW) 11:03:45 .
LO-87 28 Mar 11:03:26 11:04:53 12° 91° (E) 11:06:20 145.935 - 145.965
ZACube-1 28 Mar 11:08:38 11:11:04 15° 295° (WNW) 11:13:29 437.345
POLYITAN 1 28 Mar 11:10:41 11:14:07 24° 68° (ENE) 11:17:34 437.675
QB50P2 28 Mar 11:15:08 11:18:48 28° 69° (ENE) 11:22:29 145.880/145.840
PCSat 28 Mar 11:20:26 11:24:34 22° 314° (NW) 11:28:45 145.827
FO-29 28 Mar 11:23:29 11:31:06 54° 260° (W) 11:38:16 435.910
DUCHIFAT 1 28 Mar 11:24:19 11:27:56 27° 69° (ENE) 11:31:33 145.980
RS-15 28 Mar 11:29:20 11:39:01 31° 102° (ESE) 11:48:57 29.354- 29.394
BUGSAT 1 28 Mar 11:34:31 11:36:19 12° 63° (ENE) 11:38:05 437.445
DELFI C3 28 Mar 11:36:50 11:40:10 26° 290° (WNW) 11:43:31 145.870
NO-84 28 Mar 11:53:26 11:53:44 10° 22° (NNE) 11:54:01 435.350 FM
ESTCUBE 1 28 Mar 11:56:55 12:00:53 30° 96° (E) 12:04:50 437.505/2401.250
NANOSAT C BR1 28 Mar 12:10:42 12:14:58 80° 258° (WSW) 12:19:15 145.865
EO-79 28 Mar 12:16:37 12:20:51 62° 258° (WSW) 12:25:07 145.935-145.965
AIST 2D 28 Mar 12:18:07 12:21:09 27° 264° (W) 12:24:12 435.315
LO-87 28 Mar 12:35:05 12:38:32 40° 287° (WNW) 12:41:57 145.935 - 145.965
POLYITAN 1 28 Mar 12:46:01 12:49:46 29° 264° (W) 12:53:32 437.675
QB50P2 28 Mar 12:51:04 12:54:33 24° 265° (W) 12:58:04 145.880/145.840
Oscar 19 28 Mar 12:54:47 12:59:15 31° 67° (ENE) 13:03:43 437.125/150
DUCHIFAT 1 28 Mar 13:00:02 13:03:33 25° 265° (W) 13:07:03 145.980
VELOX 1 28 Mar 13:00:31 13:04:47 43° 99° (E) 13:09:01 145.980
BUGSAT 1 28 Mar 13:06:56 13:11:08 61° 259° (W) 13:15:21 437.445
AO-7 28 Mar 13:08:21 13:10:06 11° 42° (NE) 13:11:50 .
UKube-1 28 Mar 13:08:24 13:10:47 14° 92° (E) 13:13:09 .
50 SAT 28 Mar 13:20:33 13:23:56 44° 99° (E) 13:27:19 437.505
Gurwin Techsat 1B 28 Mar 13:25:06 13:29:52 35° 68° (ENE) 13:34:40 435.225
NO-84 28 Mar 13:28:46 13:31:50 51° 40° (NE) 13:35:09 435.350 FM
SPROUT 28 Mar 13:29:24 13:33:42 82° 100° (E) 13:37:59 437.525
ESTCUBE 1 28 Mar 13:33:51 13:37:34 26° 292° (WNW) 13:41:16 437.505/2401.250
RS-15 28 Mar 13:38:14 13:50:17 78° 304° (NW) 14:02:45 29.354- 29.394
SO-50 28 Mar 14:00:02 14:03:55 27° 113° (ESE) 14:07:46 436.795
DX 1 28 Mar 14:06:52 14:11:17 87° 287° (WNW) 14:15:40 434.975-435.025
Oscar 19 28 Mar 14:34:01 14:38:30 31° 264° (W) 14:43:01 437.125/150
VELOX 1 28 Mar 14:37:50 14:40:53 18° 295° (WNW) 14:43:56 145.980
UKube-1 28 Mar 14:42:53 14:47:04 49° 288° (WNW) 14:51:14 .
ITAMSAT 1 28 Mar 14:46:01 14:50:41 34° 68° (ENE) 14:55:21 435.822/435.867
AO-7 28 Mar 14:52:58 15:00:50 49° 63° (ENE) 15:08:42 .
50 SAT 28 Mar 14:55:32 14:56:34 11° 295° (WNW) 14:57:37 437.505
Gurwin Techsat 1B 28 Mar 15:05:15 15:09:49 29° 264° (W) 15:14:25 435.225
NO-84 28 Mar 15:07:15 15:09:08 14° 233° (SW) 15:11:07 435.350 FM
MOZHAYETS 4 28 Mar 15:35:25 15:38:28 17° 92° (E) 15:41:30
BEESAT 28 Mar 15:36:22 15:40:55 43° 99° (E) 15:45:24 436.000
SO-50 28 Mar 15:39:57 15:44:14 36° 310° (NW) 15:48:29 436.795
ITUPSAT 1 28 Mar 15:53:56 15:58:40 64° 101° (ESE) 16:03:23 437.325
RS-15 28 Mar 15:54:50 16:05:12 30° 332° (NNW) 16:15:43 29.354- 29.394
ITAMSAT 1 28 Mar 16:25:35 16:30:07 30° 264° (W) 16:34:41 435.822/435.867
O/OREOS (USA 219) 28 Mar 16:33:29 16:37:43 41° 106° (ESE) 16:42:00 437.305
CUBESAT XI-V 28 Mar 16:34:24 16:36:14 12° 90° (E) 16:38:05 437.345
KKS-1 28 Mar 16:37:48 16:40:38 16° 93° (E) 16:43:26 437.445
DOVE 4 28 Mar 16:43:02 16:43:38 10° 58° (ENE) 16:44:15 437.250
AO-7 28 Mar 16:46:06 16:53:42 39° 261° (W) 17:01:19 .
CUTE-I 28 Mar 16:54:44 16:56:29 12° 58° (ENE) 16:58:15 437.470
STARS 28 Mar 17:08:02 17:10:33 15° 92° (E) 17:13:02 437.465
MOZHAYETS 4 28 Mar 17:11:30 17:15:49 44° 288° (WNW) 17:20:07
BEESAT 28 Mar 17:14:53 17:18:22 21° 295° (WNW) 17:21:50 436.000
XW-2D 28 Mar 17:24:28 17:26:41 15° 67° (ENE) 17:28:54 145.860 - 145.880
KAITUO 1B 28 Mar 17:26:47 17:28:21 12° 65° (ENE) 17:29:54 145.475/437.950
XW-2B 28 Mar 17:30:09 17:32:39 17° 67° (ENE) 17:35:09 145.730 - 145.750
ITUPSAT 1 28 Mar 17:33:24 17:35:57 15° 298° (WNW) 17:38:30 437.325
XW-2C 28 Mar 17:39:53 17:42:52 22° 69° (ENE) 17:45:50 145.795 - 145.815
YUBILEINY 28 Mar 17:41:59 17:48:43 24° 66° (ENE) 17:55:24 435.215
CUBESAT XI-V 28 Mar 18:09:24 18:14:01 66° 286° (WNW) 18:18:39 437.345
KKS-1 28 Mar 18:13:07 18:17:25 46° 288° (WNW) 18:21:41 437.445
O/OREOS (USA 219) 28 Mar 18:13:53 18:17:18 21° 304° (WNW) 18:20:45 437.305
RS-15 28 Mar 18:14:16 18:23:23 23° 8° (N) 18:32:25 29.354- 29.394
DOVE 4 28 Mar 18:15:39 18:20:22 84° 75° (ENE) 18:25:25 437.250
M-CUBED/EXP-1 PRIME 28 Mar 18:20:57 18:21:40 10° 94° (E) 18:22:23 437.505
HO-68 28 Mar 18:23:08 18:28:43 25° 59° (ENE) 18:34:18 435.675
PCSat 28 Mar 18:23:35 18:28:50 46° 55° (NE) 18:34:03 145.827
XW-2F 28 Mar 18:29:16 18:33:03 89° 85° (E) 18:36:51 145.980 - 146.000
CUTE-I 28 Mar 18:30:17 18:35:40 83° 76° (ENE) 18:41:04 437.470
LilacSat-2 28 Mar 18:34:49 18:38:37 71° 259° (WSW) 18:42:26 437.200
STARS 28 Mar 18:42:53 18:47:09 49° 288° (WNW) 18:51:24 437.465
NUDT-PHONESAT 28 Mar 18:47:58 18:51:40 63° 259° (W) 18:55:23 437.300
CUTE 1.7 + AOD 2 28 Mar 18:48:06 18:50:56 18° 66° (ENE) 18:53:47 437.475
CUBEBUG 2 28 Mar 18:55:39 18:57:30 12° 62° (ENE) 18:59:21 437.445
XW-2D 28 Mar 18:57:02 19:00:34 37° 262° (W) 19:04:07 145.860 - 145.880
KAITUO 1B 28 Mar 18:58:21 19:01:58 45° 261° (W) 19:05:34 145.475/437.950
XW-2B 28 Mar 19:03:09 19:06:35 32° 263° (W) 19:10:02 145.730 - 145.750
XW-2C 28 Mar 19:13:49 19:16:57 24° 265° (W) 19:20:05 145.795 - 145.815
Tancredo 1 28 Mar 19:22:50 19:25:00 17° 132° (SE) 19:27:11 437.200
ISS 28 Mar 19:33:09 19:35:36 20° 132° (SE) 19:38:04 437.550
YUBILEINY 28 Mar 19:37:42 19:46:21 74° 267° (W) 19:55:02 435.215
AO-85 28 Mar 19:42:42 19:45:22 16° 111° (ESE) 19:47:58 145.980
AAUSAT CUBESAT 2 28 Mar 19:48:59 19:52:24 26° 69° (ENE) 19:55:49 437.432
UWE-3 28 Mar 19:51:02 19:54:55 27° 69° (ENE) 19:58:46 435.000/436.395/437.385
M-CUBED/EXP-1 PRIME 28 Mar 19:51:53 19:56:34 83° 290° (WNW) 20:01:14 437.505
XW-2A 28 Mar 19:56:36 19:59:57 49° 261° (W) 20:03:19 145.665 - 145.685
STRAND 1 28 Mar 19:57:06 20:01:49 36° 97° (E) 20:06:28 437.568
PCSat 28 Mar 20:07:36 20:11:55 25° 253° (WSW) 20:16:13 145.827
HO-68 28 Mar 20:08:47 20:15:52 65° 257° (WSW) 20:22:59 435.675
SEEDS 28 Mar 20:10:48 20:14:57 82° 258° (WSW) 20:19:07 437.485
CUTE-I 28 Mar 20:14:25 20:16:19 12° 271° (W) 20:18:15 437.470
Oscar 11 28 Mar 20:15:18 20:18:31 21° 67° (ENE) 20:21:45 .
CUTE 1.7 + AOD 2 28 Mar 20:22:33 20:26:28 38° 262° (W) 20:30:25 437.475
ZACube-1 28 Mar 20:26:07 20:30:15 36° 71° (ENE) 20:34:21 437.345
CUBEBUG 2 28 Mar 20:28:43 20:33:28 77° 258° (WSW) 20:38:13 437.445
RS-15 28 Mar 20:28:52 20:40:29 44° 41° (NE) 20:51:38 29.354- 29.394
DELFI C3 28 Mar 20:48:44 20:50:36 13° 65° (ENE) 20:52:28 145.870
AO-73 28 Mar 20:52:42 20:57:11 64° 75° (ENE) 21:01:36 145.935
Tancredo 1 28 Mar 20:57:48 21:00:52 48° 329° (NNW) 21:03:57 437.200
ISS 28 Mar 21:08:43 21:11:52 45° 329° (NNW) 21:15:02 437.550
AO-85 28 Mar 21:21:09 21:25:26 50° 305° (NW) 21:29:28 145.980
AAUSAT CUBESAT 2 28 Mar 21:24:27 21:27:47 24° 265° (W) 21:31:10 437.432
UWE-3 28 Mar 21:27:09 21:31:15 30° 264° (W) 21:35:18 435.000/436.395/437.385
M-CUBED/EXP-1 PRIME 28 Mar 21:29:08 21:30:14 11° 305° (NW) 21:31:21 437.505
STRAND 1 28 Mar 21:36:34 21:40:49 27° 294° (WNW) 21:45:02 437.568
YUBILEINY 28 Mar 21:38:10 21:41:30 13° 286° (WNW) 21:44:51 435.215
Oscar 11 28 Mar 21:50:31 21:54:26 34° 263° (W) 21:58:22 .
ZACube-1 28 Mar 22:03:09 22:06:35 21° 266° (W) 22:10:01 437.345
BEESAT 3 28 Mar 22:14:21 22:18:13 64° 119° (ESE) 22:22:09 437.485
TIGRISAT 28 Mar 22:16:51 22:19:48 18° 92° (E) 22:22:41 435.000
DELFI C3 28 Mar 22:21:12 22:24:58 47° 261° (W) 22:28:47 145.870
UNISAT 6 28 Mar 22:27:16 22:30:53 25° 95° (E) 22:34:25 437.425
PRISM 28 Mar 22:28:45 22:32:50 51° 100° (E) 22:36:53 437.425
SO-50 28 Mar 22:31:12 22:34:54 24° 46° (NE) 22:38:33 436.795
AO-73 28 Mar 22:32:06 22:33:46 12° 270° (W) 22:35:26 145.935
FO-29 28 Mar 22:35:41 22:39:54 20° 90° (E) 22:43:50 435.910
BEESAT 2 28 Mar 22:35:41 22:39:24 41° 116° (ESE) 22:43:11 435.950
Tancredo 1 28 Mar 22:35:44 22:37:34 14° 347° (NNW) 22:39:25 437.200
RS-15 28 Mar 22:41:41 22:53:44 67° 246° (WSW) 23:05:12 29.354- 29.394
ISS 28 Mar 22:47:02 22:48:59 15° 348° (NNW) 22:50:55 437.550
ESTCUBE 1 28 Mar 22:56:15 22:59:59 27° 68° (ENE) 23:03:44 437.505/2401.250
LO-87 28 Mar 23:10:19 23:13:53 70° 76° (ENE) 23:17:30 145.935 - 145.965
AIST 2D 28 Mar 23:43:36 23:46:15 20° 95° (E) 23:48:53 435.315
TIGRISAT 28 Mar 23:52:33 23:56:40 39° 289° (WNW) 00:00:39 435.000
BEESAT 3 28 Mar 23:54:00 23:56:14 14° 318° (NW) 23:58:29 437.485
50 SAT 28 Mar 23:54:39 23:56:55 17° 68° (ENE) 23:59:11 437.505
NANOSAT C BR1 28 Mar 23:56:26 23:59:06 16° 92° (E) 00:01:46 145.865
VELOX 1 28 Mar 23:57:19 00:01:22 36° 70° (ENE) 00:05:26 145.980
EO-79 29 Mar 00:02:14 00:05:26 21° 94° (E) 00:08:37 145.935-145.965
UKube-1 29 Mar 00:03:23 00:05:17 13° 62° (ENE) 00:07:12 .
UNISAT 6 29 Mar 00:03:48 00:07:34 28° 291° (WNW) 00:11:15 437.425
PRISM 29 Mar 00:05:29 00:07:40 14° 296° (WNW) 00:09:52 437.425
SO-50 29 Mar 00:11:15 00:15:29 41° 244° (WSW) 00:19:41 436.795
Tancredo 1 29 Mar 00:13:16 00:14:44 13° 8° (N) 00:16:13 437.200
BEESAT 2 29 Mar 00:14:23 00:17:21 20° 314° (NW) 00:20:21 435.950
FO-29 29 Mar 00:19:45 00:25:26 50° 290° (WNW) 00:30:35 435.910
SPROUT 29 Mar 00:22:01 00:26:14 58° 74° (ENE) 00:30:29 437.525
ISS 29 Mar 00:24:46 00:26:30 14° 9° (N) 00:28:15 437.550
POLYITAN 1 29 Mar 00:30:31 00:34:35 43° 99° (E) 00:38:35 437.675
ESTCUBE 1 29 Mar 00:32:51 00:36:41 28° 264° (W) 00:40:33 437.505/2401.250
QB50P2 29 Mar 00:35:13 00:39:23 54° 100° (E) 00:43:30 145.880/145.840
DUCHIFAT 1 29 Mar 00:43:23 00:47:29 50° 100° (E) 00:51:32 145.980
BUGSAT 1 29 Mar 00:49:50 00:52:50 19° 94° (E) 00:55:45 437.445
RS-15 29 Mar 00:58:45 01:03:33 13° 267° (W) 01:08:17 29.354- 29.394
DX 1 29 Mar 01:01:39 01:06:00 77° 74° (ENE) 01:10:22 434.975-435.025
Oscar 19 29 Mar 01:09:18 01:10:08 10° 88° (E) 01:10:59 437.125/150
AIST 2D 29 Mar 01:16:41 01:19:24 21° 290° (WNW) 01:22:06 435.315
50 SAT 29 Mar 01:26:49 01:29:45 26° 263° (W) 01:32:43 437.505
NANOSAT C BR1 29 Mar 01:31:03 01:35:00 40° 288° (WNW) 01:38:55 145.865
VELOX 1 29 Mar 01:34:41 01:37:55 20° 266° (W) 01:41:10 145.980
UKube-1 29 Mar 01:36:31 01:40:47 61° 258° (WSW) 01:45:05 .
EO-79 29 Mar 01:37:28 01:41:14 32° 290° (WNW) 01:44:59 145.935-145.965
Gurwin Techsat 1B 29 Mar 01:43:01 01:45:36 14° 90° (E) 01:48:11 435.225
Tancredo 1 29 Mar 01:48:44 01:51:38 30° 27° (NNE) 01:54:30 437.200
ISS 29 Mar 02:00:40 02:03:44 34° 28° (NNE) 02:06:46 437.550
SPROUT 29 Mar 02:00:52 02:02:30 12° 270° (W) 02:04:08 437.525
POLYITAN 1 29 Mar 02:07:22 02:10:00 16° 295° (WNW) 02:12:36 437.675
QB50P2 29 Mar 02:12:35 02:14:41 14° 296° (WNW) 02:16:47 145.880/145.840
DUCHIFAT 1 29 Mar 02:20:28 02:22:43 14° 296° (WNW) 02:24:58 145.980
BUGSAT 1 29 Mar 02:24:30 02:28:15 34° 290° (WNW) 02:31:58 437.445
MOZHAYETS 4 29 Mar 02:37:19 02:40:19 17° 65° (ENE) 02:43:18
BEESAT 29 Mar 02:42:13 02:46:48 48° 71° (ENE) 02:51:24 436.000
O/OREOS (USA 219) 29 Mar 02:43:25 02:48:03 76° 67° (ENE) 02:52:38 437.305
Oscar 19 29 Mar 02:44:53 02:50:05 87° 286° (WNW) 02:55:17 437.125/150
AO-7 29 Mar 02:57:42 03:01:09 13° 88° (E) 03:04:35 .
ITUPSAT 1 29 Mar 03:00:05 03:04:51 72° 74° (ENE) 03:09:38 437.325
ITAMSAT 1 29 Mar 03:01:28 03:02:56 11° 89° (E) 03:04:25 435.822/435.867
Gurwin Techsat 1B 29 Mar 03:20:45 03:26:04 73° 286° (WNW) 03:31:21 435.225
Tancredo 1 29 Mar 03:24:51 03:27:44 32° 224° (SW) 03:30:38 437.200
KKS-1 29 Mar 03:35:59 03:38:38 16° 63° (ENE) 03:41:19 437.445
ISS 29 Mar 03:37:14 03:40:08 29° 225° (SW) 03:43:02 437.550
CUBESAT XI-V 29 Mar 03:37:59 03:39:51 12° 62° (ENE) 03:41:43 437.345
STARS 29 Mar 04:04:51 04:07:09 14° 63° (ENE) 04:09:27 437.465
MOZHAYETS 4 29 Mar 04:12:39 04:17:04 48° 260° (W) 04:21:31
AO-85 29 Mar 04:13:27 04:15:28 14° 42° (NE) 04:17:30 145.980
BEESAT 29 Mar 04:21:39 04:24:49 17° 267° (W) 04:28:00 436.000
Oscar 19 29 Mar 04:26:55 04:28:36 12° 302° (WNW) 04:30:17 437.125/150
ITAMSAT 1 29 Mar 04:37:48 04:43:01 83° 287° (WNW) 04:48:11 435.822/435.867
ITUPSAT 1 29 Mar 04:41:34 04:43:09 11° 270° (W) 04:44:45 437.325
AO-7 29 Mar 04:46:52 04:55:12 74° 106° (ESE) 05:03:29 .
M-CUBED/EXP-1 PRIME 29 Mar 05:06:37 05:07:36 11° 55° (NE) 05:08:37 437.505
KKS-1 29 Mar 05:10:24 05:14:45 52° 260° (W) 05:19:09 437.445
CUBESAT XI-V 29 Mar 05:12:03 05:16:37 71° 258° (WSW) 05:21:13 437.345
STARS 29 Mar 05:38:38 05:42:59 58° 259° (W) 05:47:22 437.465
AO-85 29 Mar 05:52:20 05:56:15 67° 240° (WSW) 06:00:17 145.980
LilacSat-2 29 Mar 06:10:08 06:11:37 12° 91° (E) 06:13:06 437.200
DOVE 4 29 Mar 06:15:11 06:19:38 27° 93° (E) 06:23:59 437.250
ITAMSAT 1 29 Mar 06:20:16 06:21:38 11° 303° (WNW) 06:22:57 435.822/435.867
NUDT-PHONESAT 29 Mar 06:20:38 06:22:02 12° 91° (E) 06:23:25 437.300
NO-84 29 Mar 06:24:05 06:26:58 74° 138° (SE) 06:29:49 435.350 FM
XW-2D 29 Mar 06:30:09 06:33:02 21° 94° (E) 06:35:55 145.860 - 145.880
KAITUO 1B 29 Mar 06:30:43 06:33:05 16° 93° (E) 06:35:28 145.475/437.950
BEESAT 3 29 Mar 06:31:31 06:35:13 34° 51° (NE) 06:38:53 437.485
XW-2B 29 Mar 06:36:01 06:39:06 24° 95° (E) 06:42:09 145.730 - 145.750
M-CUBED/EXP-1 PRIME 29 Mar 06:37:39 06:41:21 69° 254° (WSW) 06:45:26 437.505
AO-7 29 Mar 06:40:43 06:47:12 26° 305° (NW) 06:53:41 .
YUBILEINY 29 Mar 06:43:26 06:50:20 27° 82° (E) 06:57:12 435.215
XW-2C 29 Mar 06:46:05 06:49:29 32° 97° (E) 06:52:51 145.795 - 145.815
CUTE-I 29 Mar 06:48:00 06:52:49 33° 97° (E) 06:57:36 437.470
BEESAT 2 29 Mar 06:53:43 06:57:07 25° 48° (NE) 07:00:29 435.950
STRAND 1 29 Mar 07:12:29 07:17:26 51° 72° (ENE) 07:22:25 437.568
